Radiation Dose at Monitoring Post of Fukushima Daini Nuclear Power Station
Date,Time,MP-1(microSv/h),MP-2(microSv/h),MP-3(microSv/h),MP-4(microSv/h),MP-5(microSv/h),MP-6(microSv/h),MP-7(microSv/h),Wind Direction,Wind Velocity(m/s),Rain
2018/09/05,00:00,0.306,0.190,0.305,0.291,0.279,0.151,0.092,south-southwest,11.8,No
2018/09/05,00:10,0.306,0.188,0.307,0.295,0.281,0.150,0.093,south-southwest,9.8,No
2018/09/05,00:20,0.304,0.188,0.304,0.297,0.279,0.152,0.093,south,12.6,No
2018/09/05,00:30,0.302,0.187,0.303,0.295,0.276,0.151,0.092,south-southwest,10.4,No
2018/09/05,00:40,0.305,0.190,0.304,0.293,0.279,0.151,0.092,south,9.8,No
2018/09/05,00:50,0.309,0.188,0.307,0.291,0.280,0.151,0.092,south-southwest,10.7,No
2018/09/05,01:00,0.304,0.187,0.304,0.296,0.279,0.151,0.092,south-southwest,9.6,No
2018/09/05,01:10,0.303,0.187,0.305,0.295,0.279,0.152,0.093,south-southwest,10.1,No
2018/09/05,01:20,0.302,0.188,0.303,0.294,0.278,0.152,0.092,south-southwest,11.4,No
2018/09/05,01:30,0.308,0.189,0.308,0.292,0.281,0.152,0.092,south,10.3,No
2018/09/05,01:40,0.305,0.189,0.306,0.294,0.281,0.150,0.093,south,11.2,Yes
2018/09/05,01:50,0.303,0.188,0.302,0.298,0.278,0.152,0.092,south,11.8,No
2018/09/05,02:00,0.302,0.188,0.302,0.296,0.276,0.152,0.092,south,10.9,No
2018/09/05,02:10,0.308,0.190,0.306,0.293,0.282,0.152,0.092,south,10.9,No
2018/09/05,02:20,0.307,0.188,0.309,0.294,0.279,0.151,0.092,south,10.1,No
2018/09/05,02:30,0.304,0.187,0.303,0.296,0.279,0.151,0.093,south-southwest,12.6,No
2018/09/05,02:40,0.301,0.189,0.304,0.296,0.277,0.152,0.093,south,12.2,Yes
2018/09/05,02:50,0.307,0.189,0.308,0.293,0.281,0.152,0.091,south,12.0,Yes
2018/09/05,03:00,0.307,0.188,0.306,0.292,0.281,0.151,0.093,south,11.5,Yes
2018/09/05,03:10,0.304,0.186,0.305,0.297,0.278,0.151,0.093,south,13.1,Yes
2018/09/05,03:20,0.301,0.189,0.303,0.297,0.277,0.151,0.092,south,12.4,Yes
2018/09/05,03:30,0.305,0.188,0.307,0.294,0.282,0.152,0.093,south,14.6,Yes
2018/09/05,03:40,0.308,0.187,0.307,0.292,0.281,0.151,0.094,south,13.4,Yes
2018/09/05,03:50,0.300,0.186,0.299,0.293,0.275,0.149,0.092,south-southwest,10.9,Yes
2018/09/05,04:00,0.294,0.185,0.298,0.285,0.274,0.149,0.092,south-southwest,15.3,Yes
2018/09/05,04:10,0.300,0.185,0.299,0.286,0.278,0.149,0.093,south-southwest,9.3,Yes
2018/09/05,04:20,0.299,0.187,0.297,0.292,0.275,0.150,0.094,south-southwest,9.8,Yes
2018/09/05,04:30,0.298,0.190,0.302,0.290,0.280,0.152,0.097,south-southwest,9.5,Yes
2018/09/05,04:40,0.304,0.190,0.304,0.292,0.283,0.154,0.098,south-southwest,8.1,Yes
2018/09/05,04:50,0.303,0.193,0.302,0.294,0.281,0.154,0.099,south-southwest,7.5,Yes
2018/09/05,05:00,0.302,0.193,0.306,0.294,0.282,0.155,0.100,south-southwest,7.8,Yes
2018/09/05,05:10,0.306,0.192,0.306,0.294,0.284,0.156,0.100,south,8.8,Yes
2018/09/05,05:20,0.303,0.193,0.303,0.297,0.281,0.156,0.099,south-southwest,10.9,No
2018/09/05,05:30,0.303,0.192,0.307,0.294,0.283,0.155,0.100,south-southwest,11.0,Yes
2018/09/05,05:40,0.307,0.192,0.306,0.297,0.284,0.158,0.100,south-southwest,11.4,Yes
2018/09/05,05:50,0.302,0.194,0.303,0.296,0.281,0.156,0.101,south,11.1,Yes
2018/09/05,06:00,0.304,0.193,0.308,0.293,0.286,0.156,0.102,south,12.6,Yes
2018/09/05,06:10,0.305,0.194,0.306,0.297,0.283,0.156,0.101,south-southwest,12.8,Yes
2018/09/05,06:20,0.301,0.193,0.306,0.295,0.281,0.155,0.100,south-southwest,11.8,No
2018/09/05,06:30,0.305,0.191,0.305,0.294,0.285,0.155,0.099,south-southwest,10.4,Yes
2018/09/05,06:40,0.304,0.193,0.304,0.296,0.283,0.156,0.100,south-southwest,9.5,Yes
2018/09/05,06:50,0.301,0.192,0.308,0.295,0.282,0.155,0.101,south-southwest,9.0,Yes
2018/09/05,07:00,0.306,0.192,0.305,0.295,0.286,0.155,0.099,south-southwest,8.1,No
2018/09/05,07:10,0.303,0.191,0.303,0.296,0.281,0.155,0.098,south-southwest,6.6,No
2018/09/05,07:20,0.300,0.190,0.306,0.291,0.281,0.152,0.098,southwest,4.2,No
2018/09/05,07:30,0.303,0.189,0.302,0.293,0.282,0.152,0.096,south-southwest,5.2,No
2018/09/05,07:40,0.300,0.189,0.301,0.293,0.279,0.151,0.095,south-southwest,4.3,No
2018/09/05,07:50,0.298,0.186,0.304,0.289,0.276,0.150,0.094,southwest,2.6,No
2018/09/05,08:00,0.301,0.187,0.301,0.291,0.281,0.149,0.094,south,5.4,No
2018/09/05,08:10,0.302,0.189,0.299,0.293,0.279,0.150,0.093,south-southwest,5.9,No
2018/09/05,08:20,0.298,0.187,0.303,0.289,0.276,0.149,0.093,south-southwest,5.9,No
2018/09/05,08:30,0.296,0.185,0.300,0.288,0.277,0.148,0.093,south,7.5,No
2018/09/05,08:40,0.299,0.185,0.299,0.290,0.278,0.148,0.093,south,7.6,No
2018/09/05,08:50,0.300,0.188,0.300,0.292,0.278,0.149,0.091,south-southwest,7.3,No
2018/09/05,09:00,0.299,0.186,0.303,0.290,0.276,0.149,0.092,south-southwest,5.0,No
2018/09/05,09:10,0.297,0.187,0.299,0.288,0.275,0.147,0.091,south-southwest,4.8,No
2018/09/05,09:20,0.295,0.184,0.300,0.287,0.278,0.148,0.092,south,2.8,No
2018/09/05,09:30,0.296,0.185,0.301,0.288,0.280,0.149,0.091,south,3.5,No
2018/09/05,09:40,0.297,0.185,0.301,0.288,0.278,0.148,0.091,south,3.9,No
2018/09/05,09:50,0.297,0.186,0.299,0.288,0.277,0.148,0.091,south,4.0,No
2018/09/05,10:00,0.298,0.187,0.300,0.291,0.278,0.149,0.091,south,3.7,No
2018/09/05,10:10,0.298,0.186,0.303,0.290,0.277,0.149,0.091,south,3.8,No
2018/09/05,10:20,0.299,0.187,0.302,0.290,0.277,0.149,0.092,south,4.3,No
2018/09/05,10:30,0.300,0.186,0.301,0.292,0.278,0.149,0.093,south,4.3,No
2018/09/05,10:40,0.300,0.186,0.301,0.292,0.278,0.149,0.091,south,4.8,No
2018/09/05,10:50,0.300,0.187,0.299,0.293,0.279,0.150,0.092,south,6.9,No
2018/09/05,11:00,0.301,0.186,0.298,0.294,0.278,0.151,0.091,south,7.6,No
2018/09/05,11:10,0.300,0.186,0.301,0.292,0.278,0.150,0.092,south,7.0,No
2018/09/05,11:20,0.301,0.186,0.301,0.291,0.277,0.151,0.092,south,7.1,No
2018/09/05,11:30,0.301,0.187,0.302,0.291,0.279,0.150,0.092,south,6.6,No
2018/09/05,11:40,0.302,0.188,0.302,0.292,0.280,0.150,0.092,south,4.3,No
2018/09/05,11:50,0.300,0.187,0.302,0.293,0.280,0.150,0.092,south-southwest,2.7,No
2018/09/05,12:00,0.301,0.187,0.302,0.292,0.279,0.150,0.091,south,5.1,No
2018/09/05,12:10,0.300,0.188,0.302,0.293,0.279,0.150,0.092,south,6.4,No
2018/09/05,12:20,0.301,0.188,0.303,0.293,0.279,0.150,0.092,south,8.4,No
2018/09/05,12:30,0.302,0.188,0.304,0.292,0.279,0.149,0.092,south,8.7,No
2018/09/05,12:40,0.302,0.187,0.302,0.292,0.279,0.150,0.092,south,12.5,No
2018/09/05,12:50,0.300,0.187,0.303,0.292,0.278,0.150,0.093,south,11.8,No
2018/09/05,13:00,0.300,0.188,0.301,0.293,0.279,0.150,0.092,south,10.9,No
2018/09/05,13:10,0.300,0.186,0.302,0.292,0.280,0.149,0.091,south,10.1,No
2018/09/05,13:20,0.301,0.187,0.301,0.292,0.279,0.150,0.092,south,9.2,No
2018/09/05,13:30,0.301,0.187,0.303,0.293,0.278,0.151,0.091,south,8.6,No
2018/09/05,13:40,0.299,0.186,0.301,0.294,0.280,0.151,0.092,south,9.6,No
2018/09/05,13:50,0.300,0.186,0.302,0.292,0.279,0.150,0.093,south,9.3,No
2018/09/05,14:00,0.300,0.186,0.302,0.293,0.278,0.150,0.092,south,10.3,No
2018/09/05,14:10,0.301,0.186,0.302,0.293,0.280,0.151,0.092,south,9.3,No
2018/09/05,14:20,0.302,0.186,0.302,0.293,0.280,0.152,0.092,south,9.2,No
2018/09/05,14:30,0.302,0.186,0.304,0.294,0.281,0.152,0.093,south,9.8,No
2018/09/05,14:40,0.301,0.187,0.303,0.295,0.280,0.151,0.091,south,9.5,No
2018/09/05,14:50,0.303,0.186,0.303,0.293,0.281,0.150,0.092,south,8.1,No
2018/09/05,15:00,0.304,0.187,0.304,0.293,0.280,0.152,0.092,south,6.6,No
2018/09/05,15:10,0.303,0.187,0.304,0.294,0.281,0.152,0.092,south,5.5,No
2018/09/05,15:20,0.303,0.188,0.303,0.291,0.279,0.152,0.092,south,5.5,No
2018/09/05,15:30,0.303,0.187,0.303,0.292,0.279,0.152,0.093,south,5.5,No
2018/09/05,15:40,0.303,0.186,0.302,0.294,0.280,0.152,0.092,south,5.9,No
2018/09/05,15:50,0.301,0.186,0.301,0.297,0.280,0.150,0.092,south,5.8,No
2018/09/05,16:00,0.302,0.186,0.302,0.296,0.280,0.151,0.091,south,5.7,No
2018/09/05,16:10,0.301,0.188,0.307,0.294,0.279,0.151,0.093,south-southeast,5.8,No
2018/09/05,16:20,0.298,0.187,0.307,0.292,0.279,0.150,0.093,south,6.0,No
2018/09/05,16:30,0.301,0.188,0.305,0.292,0.280,0.151,0.092,south,4.3,No
2018/09/05,16:40,0.306,0.188,0.303,0.297,0.280,0.151,0.091,south,4.5,No
2018/09/05,16:50,0.305,0.189,0.303,0.296,0.279,0.151,0.092,south,3.3,No
2018/09/05,17:00,0.303,0.190,0.307,0.294,0.278,0.151,0.093,south,2.7,No
2018/09/05,17:10,0.301,0.189,0.306,0.292,0.278,0.152,0.093,south,2.8,No
2018/09/05,17:20,0.304,0.187,0.304,0.295,0.279,0.151,0.092,south-southeast,2.4,No
2018/09/05,17:30,0.306,0.187,0.301,0.298,0.278,0.151,0.092,south,3.1,No
2018/09/05,17:40,0.303,0.189,0.307,0.295,0.282,0.151,0.093,south-southwest,2.4,No
2018/09/05,17:50,0.302,0.189,0.307,0.292,0.283,0.152,0.092,south-southwest,1.9,No
2018/09/05,18:00,0.302,0.187,0.304,0.294,0.281,0.152,0.092,south-southwest,2.2,No
2018/09/05,18:10,0.305,0.187,0.302,0.298,0.277,0.150,0.093,southwest,0.7,No
2018/09/05,18:20,0.304,0.188,0.306,0.294,0.282,0.151,0.092,west,0.6,No
2018/09/05,18:30,0.300,0.188,0.307,0.292,0.283,0.151,0.093,south-southwest,0.9,No
2018/09/05,18:40,0.304,0.187,0.303,0.296,0.281,0.151,0.093,southwest,0.7,No
2018/09/05,18:50,0.305,0.188,0.303,0.296,0.278,0.151,0.093,west-northwest,0.9,No
2018/09/05,19:00,0.304,0.189,0.308,0.295,0.282,0.152,0.093,northwest,1.7,No
2018/09/05,19:10,0.301,0.188,0.307,0.294,0.283,0.152,0.093,northwest,1.5,No
2018/09/05,19:20,0.305,0.188,0.302,0.297,0.280,0.151,0.093,north,1.3,No
2018/09/05,19:30,0.304,0.189,0.307,0.294,0.279,0.151,0.093,north,1.2,No
2018/09/05,19:40,0.303,0.188,0.308,0.294,0.284,0.153,0.093,north-northwest,2.1,No
2018/09/05,19:50,0.304,0.187,0.305,0.295,0.282,0.152,0.094,north-northwest,3.6,No
2018/09/05,20:00,0.305,0.190,0.306,0.299,0.281,0.151,0.092,north-northwest,5.0,No
2018/09/05,20:10,0.305,0.188,0.309,0.295,0.280,0.152,0.094,north-northwest,5.4,No
2018/09/05,20:20,0.302,0.189,0.306,0.293,0.283,0.151,0.094,north-northwest,4.9,No
2018/09/05,20:30,0.306,0.189,0.303,0.297,0.280,0.151,0.093,north-northwest,4.7,No
2018/09/05,20:40,0.306,0.189,0.308,0.298,0.280,0.153,0.093,north-northwest,3.4,No
2018/09/05,20:50,0.303,0.187,0.307,0.295,0.280,0.152,0.094,northwest,3.0,No
2018/09/05,21:00,0.305,0.190,0.305,0.295,0.284,0.151,0.093,northwest,3.7,No
2018/09/05,21:10,0.306,0.190,0.307,0.298,0.280,0.152,0.094,northwest,3.6,No
2018/09/05,21:20,0.302,0.188,0.308,0.297,0.278,0.152,0.094,northwest,2.3,No
2018/09/05,21:30,0.303,0.188,0.307,0.294,0.284,0.152,0.093,west,2.6,No
2018/09/05,21:40,0.307,0.189,0.303,0.296,0.283,0.151,0.094,west,1.9,No
2018/09/05,21:50,0.304,0.188,0.306,0.296,0.280,0.153,0.094,west-southwest,1.9,No
2018/09/05,22:00,0.302,0.188,0.308,0.294,0.280,0.152,0.093,west-northwest,1.7,No
2018/09/05,22:10,0.305,0.191,0.305,0.294,0.283,0.151,0.093,northwest,1.8,No
2018/09/05,22:20,0.304,0.188,0.305,0.299,0.281,0.153,0.094,northwest,1.2,No
2018/09/05,22:30,0.303,0.189,0.308,0.296,0.279,0.153,0.094,north,1.0,No
2018/09/05,22:40,0.304,0.189,0.305,0.294,0.284,0.152,0.094,northeast,1.9,No
2018/09/05,22:50,0.306,0.188,0.304,0.297,0.282,0.152,0.094,northeast,1.4,No
2018/09/05,23:00,0.303,0.188,0.308,0.297,0.279,0.152,0.094,-,CALM,No
2018/09/05,23:10,0.306,0.189,0.305,0.294,0.281,0.151,0.094,north,1.4,No
2018/09/05,23:20,0.305,0.188,0.305,0.296,0.283,0.153,0.094,-,CALM,No
2018/09/05,23:30,0.303,0.189,0.306,0.298,0.279,0.151,0.093,south,0.9,No
2018/09/05,23:40,0.304,0.188,0.305,0.293,0.282,0.152,0.094,west-southwest,3.2,No
2018/09/05,23:50,0.305,0.188,0.304,0.296,0.284,0.153,0.094,southwest,1.8,No
